Location: Esterri de Aneo
(42.6284°N, 1.1223°E)
Time: 23:29:20
(UTC+00:00)

Cosmos 1980 Rocket - Pass Details

Date: 11 December 2025
Orbit: 830 x 847 km, 71.0° (Epoch: 19 January)

Event Time Altitude Azimuth Distance (km) Brightness Sun altitude
Rises 18:07:41 0° 204° (SSW) 3,386 5.9 -18.7°
Reaches altitude 10° 18:10:07 10° 205° (SSW) 2,453 5.1 -19.1°
Maximum altitude 18:15:46 85° 293° (WNW) 849 2.2 -20.1°
Enters shadow 18:19:32 22° 22° (NNE) 1,758 3.5 -20.8°
